Location: Canazei
(46.4667°N, 11.7667°E)
Time: 04:43:21
(UTC+00:00)

DNEPR-1 R/B - Pass Details

Date: 21 April 2021
Orbit: 586 x 1336 km, 64.6° (Epoch: 10 May)

Event Time Altitude Azimuth Distance (km) Brightness Sun altitude
Exits shadow 03:38:34 - 229° (SW) 3,011 6.4 -6.7°
Reaches altitude 10° 03:39:29 10° 230° (SW) 2,673 6.2 -6.6°
Maximum altitude 03:45:32 60° 310° (NW) 937 4.4 -5.6°
Drops below altitude 10° 03:50:32 10° 31° (NNE) 2,213 7.3 -4.8°
Sets 03:52:44 0° 35° (NE) 3,053 8.2 -4.5°
